User: anonymous   Login
Location: Unspecified
(0.0000°N, 0.0000°E)
Time: 08:59:47
(UTC+00:00)
Language:

STARLINK-33687 - Orbit

View from above orbital plane
View from above orbital plane
View from above satellite
View from above satellite

Ground track
Ground track

The orbit is defined by the following mean orbital elements,

1 63485U          26145.58335647 +.00000000 +00000-0 +22505-2 0 00004
2 63485  43.0000 185.2395 0001420 280.4388 278.4279 15.27549397    09
Epoch (UTC): 25 May 2026 14:00:01
Eccentricity: 0.0001420
inclination: 43.0000°
perigee height: 482 km
apogee height: 484 km
right ascension of ascending node: 185.2395°
argument of perigee: 280.4388°
revolutions per day: 15.27549397
mean anomaly at epoch: 278.4279°

The dashed part of the orbit path shows where the satellite is in the earth's shadow,  

DLR